Location: Haulchin
(50.3172°N, 3.4360°E)
Time: 13:33:53
(UTC+00:00)

Cosmos 1833 Rocket - Pass Details

Date: 23 May 2024
Orbit: 831 x 839 km, 71.0° (Epoch: 16 June)

Event Time Altitude Azimuth Distance (km) Brightness Sun altitude
Exits shadow 00:08:18 26° 225° (SW) 1,596 3.7 -18.8°
Maximum altitude 00:11:32 67° 302° (WNW) 901 2.9 -18.8°
Drops below altitude 10° 00:17:08 10° 26° (NNE) 2,455 6.2 -18.6°
Sets 00:19:37 0° 29° (NNE) 3,394 7.2 -18.6°
